Location: Tucson
(32.2217°N, 110.9265°W)
Time: 17:31:01
(UTC-07:00)

Transit 2A Rocket - Pass Details

Date: 14 August 2022
Orbit: 593 x 908 km, 66.7° (Epoch: 26 September)

Event Time Altitude Azimuth Distance (km) Brightness Sun altitude
Rises 04:01:19 0° 326° (NW) 2,902 8.0 -21.1°
Reaches altitude 10° 04:03:35 10° 320° (NW) 2,026 7.1 -20.7°
Enters shadow 04:07:52 45° 250° (WSW) 918 4.9 -19.9°
Exits shadow 04:14:48 - 171° (S) 3,023 7.9 -18.7°
Sets 04:15:08 0° 170° (S) 3,157 8.0 -18.6°
